Theta_e
330 320 313 306 312 311 306 300 293 291 291 287 288 289 291 295 300 299 299 300 297 300 322 328 326 324 318 315 319 325 326 319 315 309 303 317 344 345 347 350 351 351 351 354 354 354 354 354 354 352 352 352 351 350 350 350 350 350 349 348 349 348 349 349 351 352 352 353 353 353 354 354 354 353 353 353 353 353 353 353 353 353 352 351 351 351 350 350 350 350 349 349 348 349 349 349 348
321 314 305 310 312 304 302 296 289 290 289 287 289 289 292 295 298 297 298 298 296 315 326 328 328 329 329 329 330 329 328 331 332 330 337 344 346 346 351 352 351 350 352 353 354 352 352 353 353 353 352 352 351 350 350 350 350 349 349 348 348 348 349 349 350 352 352 353 354 354 354 354 354 353 353 353 353 352 352 351 350 349 348 349 349 349 349 349 349 349 350 350 349 349 349 349 348
317 307 299 307 305 303 299 297 291 286 288 285 286 292 295 294 296 297 297 302 306 323 327 327 328 326 326 326 318 318 315 336 337 340 339 345 339 343 350 352 352 351 352 353 353 351 352 352 353 352 352 352 351 350 350 352 350 349 349 348 348 348 348 350 351 352 353 353 354 354 354 354 353 354 353 352 352 351 351 349 348 346 345 345 346 347 347 347 347 348 348 348 348 349 348 347 346
311 310 302 300 301 296 295 290 287 287 286 284 285 291 293 295 297 297 297 298 299 324 324 325 325 330 324 320 323 330 330 332 338 339 337 340 339 348 351 351 353 353 353 352 352 352 351 353 352 352 352 352 351 350 350 351 350 349 348 349 348 349 349 350 351 352 353 353 353 354 354 353 353 353 353 353 351 350 348 347 347 346 346 345 345 344 345 345 346 347 347 348 348 348 347 345 344
308 309 302 299 298 297 294 292 286 286 287 286 286 288 294 296 297 295 297 300 309 324 323 325 323 329 329 327 328 317 322 337 339 342 341 343 349 351 351 352 352 352 351 352 352 352 351 354 353 352 352 352 351 350 352 351 349 349 349 348 348 348 349 349 350 352 353 354 353 353 353 353 353 353 353 352 350 349 349 348 348 348 347 347 347 346 346 345 345 345 345 346 347 347 346 345 344
301 300 303 302 299 297 292 290 288 287 290 290 289 290 293 296 297 296 297 300 322 324 325 324 322 323 328 330 332 327 336 328 338 339 343 343 349 352 352 352 351 351 351 351 352 351 352 354 353 352 351 351 350 350 351 349 348 348 349 348 348 348 348 350 352 352 352 353 353 353 353 353 353 353 352 352 351 350 348 347 347 347 346 346 345 343 343 344 346 345 345 346 347 345 344 344 344
303 297 296 299 297 294 287 283 284 286 293 293 292 293 295 295 295 296 296 299 308 327 330 328 331 330 325 330 332 337 339 339 337 338 345 347 351 352 352 351 350 350 351 351 351 352 352 353 352 352 351 351 352 351 350 349 348 347 348 349 348 348 348 350 352 352 353 353 353 353 353 353 354 353 352 352 351 350 349 347 346 345 345 345 346 348 347 346 346 345 345 345 343 343 344 345 344
307 299 296 291 289 291 287 285 286 286 289 295 295 295 297 297 297 298 297 299 299 321 328 331 331 329 325 335 323 334 338 340 341 346 348 350 351 351 352 351 349 349 351 351 352 352 354 352 352 352 351 351 351 350 350 348 349 348 348 349 348 348 348 350 352 352 353 353 353 353 353 353 353 353 352 351 350 349 349 349 349 349 348 348 347 347 345 344 344 345 345 344 344 344 344 343 343
302 299 299 292 290 287 284 285 287 288 290 292 294 297 307 302 302 300 297 298 307 322 328 329 330 322 326 328 325 332 335 341 345 347 348 349 349 350 350 349 348 348 350 351 352 351 351 352 352 352 352 352 351 350 350 349 349 348 348 347 347 349 349 350 351 352 353 353 353 353 353 353 353 352 351 351 351 350 351 350 348 347 347 347 347 345 344 344 344 345 345 344 344 344 344 343 344
300 299 292 291 285 287 283 284 286 288 289 290 293 296 295 296 296 298 297 296 300 325 327 332 329 324 329 324 327 329 331 343 345 345 347 348 349 349 349 349 349 348 349 351 351 350 350 353 352 352 351 352 351 350 350 348 348 348 348 347 348 349 350 350 352 353 353 353 353 352 352 352 351 351 351 351 351 350 348 346 346 345 346 346 347 345 345 345 344 345 345 345 344 345 344 343 343
295 294 293 291 286 283 285 283 285 290 290 293 295 297 298 298 297 295 296 297 302 323 328 331 326 326 328 327 329 335 339 342 342 339 345 347 349 348 348 349 349 349 349 350 350 350 351 349 352 351 352 351 351 350 349 349 348 348 348 348 349 349 349 351 352 352 352 352 352 352 352 351 352 351 351 351 351 350 348 347 346 346 346 346 346 346 346 346 345 345 345 344 345 345 343 342 344
294 293 292 285 282 284 282 283 287 289 290 291 294 298 297 298 297 295 294 295 315 324 326 328 325 331 325 326 327 334 337 337 339 342 345 347 347 348 348 349 349 350 350 350 350 350 349 350 350 352 351 351 350 350 349 348 348 347 347 347 348 349 349 351 352 351 352 352 352 352 352 351 351 351 351 350 350 348 347 346 345 346 347 346 346 346 346 344 345 345 345 345 345 345 343 343 344
293 288 285 285 282 284 284 285 285 293 291 291 294 297 297 297 296 297 295 297 321 324 325 329 332 330 322 325 332 335 333 334 338 342 344 345 346 347 348 348 349 349 350 350 349 348 349 348 349 349 349 351 350 349 348 348 347 347 348 348 347 348 350 351 351 351 352 352 352 352 352 351 351 351 351 350 350 349 348 348 347 346 345 346 347 346 345 345 344 345 344 345 344 343 343 344 345
295 291 288 286 284 282 284 284 283 287 286 290 293 295 296 296 295 296 298 304 322 323 328 332 332 330 326 329 329 329 331 335 339 342 344 345 346 346 347 348 348 348 349 349 348 348 347 348 347 347 348 347 346 348 348 347 347 347 348 348 347 349 350 351 351 352 351 352 352 351 351 351 351 350 350 350 348 347 347 347 347 346 347 347 346 346 345 345 345 345 344 345 344 343 343 343 345
299 291 287 284 284 284 283 287 286 286 288 293 295 294 295 302 298 297 304 309 321 330 334 337 333 327 321 325 324 328 332 336 340 343 344 344 345 345 345 347 347 347 347 348 348 347 346 347 346 345 345 344 344 343 344 346 347 347 347 347 347 349 350 351 351 351 351 352 352 351 351 351 351 351 350 349 348 347 346 346 347 346 345 346 346 346 345 345 345 345 344 345 344 342 343 344 345
298 289 286 288 283 283 286 286 286 286 289 292 295 294 295 298 316 306 308 322 324 333 335 328 334 325 328 327 328 333 335 338 341 343 342 341 343 343 344 345 345 346 346 346 346 346 346 345 345 344 343 342 341 341 341 342 346 348 348 348 349 349 350 350 351 351 351 351 351 351 350 350 350 349 350 348 349 348 346 346 346 346 346 345 346 346 346 345 345 345 345 344 344 343 344 344 345
293 291 290 281 284 283 284 286 287 285 287 290 292 294 294 295 305 328 330 332 328 327 330 332 330 334 330 329 334 336 337 340 342 341 340 339 340 340 341 342 342 343 344 344 344 344 345 344 344 344 343 340 340 340 339 340 344 347 347 347 349 350 350 350 350 351 350 350 349 350 347 346 345 346 345 345 349 346 346 346 345 345 346 345 345 346 346 346 346 345 345 344 344 343 342 343 344
297 292 285 285 283 284 286 288 288 289 292 294 294 294 294 294 318 327 331 330 330 330 331 332 336 335 335 336 338 338 339 339 340 338 337 336 338 337 337 339 340 338 340 341 343 344 343 343 343 343 341 339 339 339 339 341 343 344 341 343 345 347 348 348 347 346 350 345 350 346 344 346 341 341 344 348 345 347 346 347 346 345 345 345 346 345 346 346 346 346 345 345 342 339 336 330 338
294 287 287 289 285 288 289 289 290 292 292 293 295 295 294 295 321 324 324 322 326 327 330 332 331 333 335 336 336 337 338 338 337 336 335 335 335 334 334 337 337 338 339 340 341 343 343 343 343 342 342 340 338 338 339 341 340 339 339 341 344 347 347 346 343 344 343 343 341 341 343 341 340 342 343 345 346 347 346 347 347 346 345 345 345 345 345 346 346 345 345 343 339 336 329 328 327
294 291 287 288 290 289 289 291 293 294 294 296 295 294 294 296 315 324 322 322 324 324 325 329 329 329 332 334 336 336 337 336 336 335 334 334 334 333 334 335 336 337 338 340 340 342 343 342 342 342 342 341 339 338 339 338 337 337 338 339 340 341 341 341 338 339 340 339 338 338 337 340 339 338 347 348 349 342 343 346 346 347 346 345 345 342 343 344 345 344 344 342 337 334 331 329 328
293 294 290 291 291 292 296 295 295 296 295 294 294 293 294 297 307 324 323 321 320 326 330 328 329 331 332 333 334 335 335 335 335 335 334 334 334 335 334 335 336 337 339 340 340 340 341 341 342 341 343 342 340 339 341 341 340 338 338 338 338 339 338 337 337 336 336 335 336 336 337 340 336 336 336 339 338 339 339 339 338 338 337 336 343 335 336 336 337 335 335 337 335 335 332 329 329
292 294 292 292 290 291 295 294 293 294 295 293 292 293 295 302 315 324 324 318 318 324 330 332 333 334 333 332 334 335 334 333 333 333 333 333 333 333 334 334 337 338 339 338 338 339 340 341 341 342 342 342 341 339 341 342 342 341 341 340 339 339 337 335 335 334 334 335 335 336 339 335 335 335 335 336 339 337 338 338 337 335 335 337 341 337 336 336 335 335 335 336 336 336 335 332 334
292 291 291 290 293 294 295 297 296 294 294 293 292 295 295 306 317 323 325 315 317 329 333 335 336 336 336 335 334 333 333 332 333 332 333 333 333 333 333 334 334 335 337 337 338 339 340 340 340 341 341 341 341 342 342 342 341 342 342 341 340 339 337 336 335 332 333 334 336 339 334 333 332 334 334 335 336 338 337 335 335 335 335 335 339 337 335 334 335 336 335 335 334 337 336 334 332
293 292 291 294 293 293 294 295 294 292 293 293 294 295 295 294 303 322 322 325 328 333 336 337 337 337 336 334 334 333 333 333 333 334 335 334 334 334 334 334 335 336 336 336 337 338 339 339 340 340 340 340 341 341 341 341 340 341 341 343 340 342 339 336 333 331 333 334 336 337 337 333 333 332 333 334 335 336 336 333 333 334 333 333 336 337 335 333 333 334 335 335 336 336 337 336 333
292 290 292 293 294 293 295 294 292 292 292 294 293 293 294 296 309 321 321 326 332 335 337 337 337 336 335 334 333 333 333 334 334 335 336 336 336 335 335 336 335 336 334 335 336 337 338 339 339 339 340 341 341 341 339 340 340 340 340 339 339 342 336 334 332 332 333 334 336 337 336 332 332 332 333 334 333 336 336 334 332 332 331 331 331 334 334 332 331 332 334 335 335 335 335 335 333
291 292 292 294 295 295 295 294 293 293 294 294 297 292 293 296 316 320 322 329 334 337 337 337 336 334 334 333 334 334 333 333 335 335 335 336 335 334 335 335 336 334 334 335 336 337 337 338 338 339 340 341 340 340 339 338 339 339 340 340 339 340 334 332 330 331 332 333 333 335 335 331 331 332 332 333 331 332 333 333 332 330 331 330 330 331 332 331 331 330 331 333 334 334 335 336 333
291 292 292 293 294 294 293 292 292 293 293 293 294 293 305 317 314 309 327 334 336 336 335 337 335 333 334 334 335 335 334 335 335 336 336 335 334 334 334 336 335 335 336 336 336 337 338 338 337 338 339 341 340 339 338 337 338 338 340 340 341 337 334 334 332 329 330 333 333 333 335 336 330 330 331 332 334 333 331 332 331 330 330 330 330 329 328 330 329 329 330 331 332 333 334 336 334
293 293 292 290 291 291 291 290 291 291 293 291 293 292 297 303 312 305 330 336 337 334 335 335 335 335 335 336 336 336 336 337 338 337 334 333 333 333 334 334 334 336 336 337 337 338 338 338 337 336 338 340 339 338 338 336 337 338 339 338 339 337 336 334 332 329 332 332 333 333 334 335 336 329 329 331 333 332 332 331 331 330 332 332 331 331 330 329 329 329 330 331 332 332 332 332 332
292 292 289 287 289 290 289 291 293 292 292 292 291 294 300 300 301 315 332 335 336 334 333 334 335 336 336 337 337 337 337 338 338 336 335 335 336 335 334 335 336 337 339 339 338 338 338 339 337 337 338 339 337 337 336 335 335 337 337 337 337 337 336 334 333 332 330 331 333 335 335 335 336 332 330 331 335 333 333 333 331 332 332 332 332 332 331 330 330 331 331 333 332 332 332 330 330
292 290 287 288 286 287 289 290 290 292 293 294 294 286 283 292 291 321 334 335 334 333 333 334 334 336 335 335 336 337 338 338 337 336 336 336 336 336 335 336 338 338 339 339 339 338 339 338 338 337 338 337 336 335 333 333 334 335 335 335 338 336 334 334 334 333 332 331 333 335 335 335 336 335 333 330 331 333 332 333 333 332 333 333 332 332 331 331 331 330 330 331 333 333 331 330 330
287 287 288 284 284 282 287 290 291 291 292 293 295 285 282 288 310 330 333 334 332 330 332 333 334 335 335 335 335 335 337 338 337 337 337 337 337 337 336 337 338 339 339 339 338 339 339 338 338 337 338 337 337 335 333 332 333 334 333 334 334 334 333 332 331 331 331 331 332 334 335 335 336 336 336 335 333 333 333 333 333 334 333 333 332 332 332 332 331 330 330 330 330 330 331 330 329
284 286 282 280 283 282 285 290 290 291 292 293 293 287 286 292 323 330 333 333 331 329 330 332 333 334 334 335 334 335 336 338 338 337 337 337 337 337 337 337 338 339 339 339 340 340 338 337 339 336 336 335 335 334 332 333 332 332 333 335 333 333 332 330 329 330 331 334 335 334 335 335 336 337 336 336 335 335 335 335 335 334 334 333 332 332 332 331 331 330 331 330 329 329 329 328 329
279 283 279 282 281 282 286 291 290 292 294 293 293 283 287 301 315 330 332 331 330 329 330 330 331 332 333 334 333 334 335 336 337 336 336 336 337 337 337 337 338 339 339 340 339 339 338 338 339 335 334 334 335 334 333 332 332 332 334 335 334 334 332 330 329 329 330 333 334 335 336 337 337 337 337 337 335 335 336 336 337 336 335 334 332 331 332 332 331 330 329 330 331 330 329 328 328
279 280 282 280 281 281 283 284 288 290 292 290 292 288 286 289 315 328 331 331 329 328 329 330 331 332 333 333 333 334 334 334 334 334 335 336 337 337 337 338 338 339 340 340 340 339 339 339 338 336 334 334 334 333 333 332 334 335 335 336 337 334 333 330 329 329 329 331 332 333 334 335 336 337 337 337 336 336 336 336 336 337 337 335 334 333 333 334 333 331 330 330 330 329 327 327 327
280 279 280 282 283 282 282 285 289 291 291 290 289 289 288 293 317 326 328 330 329 328 329 330 331 330 332 332 332 333 334 333 334 335 335 336 336 337 337 337 338 339 340 340 340 340 339 339 338 339 335 335 334 333 334 334 335 335 336 336 336 334 333 332 329 328 331 332 332 332 332 333 335 335 336 336 335 335 336 336 336 336 336 336 335 334 333 333 333 332 330 330 330 329 329 327 328
282 281 280 280 282 281 283 285 286 291 289 289 288 288 288 297 316 324 326 329 327 328 329 329 330 331 332 332 332 333 333 333 336 336 336 337 337 337 336 337 338 339 339 340 339 339 338 338 337 337 336 336 335 334 335 336 336 335 334 334 334 334 334 334 332 332 332 331 332 332 332 332 334 335 335 335 335 335 335 335 335 336 335 335 334 333 333 333 332 332 331 330 329 329 329 329 328
283 282 281 281 281 281 283 285 287 289 289 288 287 288 288 295 313 321 324 326 325 326 325 327 329 330 330 331 331 332 333 333 335 336 336 337 337 337 337 338 338 339 339 339 338 338 338 338 337 336 336 337 337 336 336 336 335 335 335 335 334 334 333 334 333 332 331 332 332 332 332 332 333 334 335 335 334 335 335 335 335 335 335 334 333 333 334 334 334 333 332 331 329 327 326 328 327
283 282 282 281 282 282 284 288 288 289 290 286 287 288 289 289 306 319 323 324 323 324 325 326 328 329 330 330 330 331 333 334 334 334 335 336 336 337 337 337 338 336 337 338 338 338 339 339 337 337 337 337 338 337 337 337 336 336 335 335 334 333 334 333 331 331 330 331 331 330 331 331 332 332 334 334 334 334 334 335 334 333 333 333 333 334 334 334 334 333 332 329 329 328 326 327 326
284 282 280 281 280 282 285 286 287 289 290 285 286 287 288 288 293 313 322 323 324 325 326 327 327 328 328 329 330 331 331 330 332 333 334 335 336 336 336 336 337 338 338 338 338 339 339 338 338 337 337 337 337 338 337 336 336 335 334 332 334 330 330 332 331 331 332 330 329 330 330 330 330 330 331 334 333 333 334 334 333 333 333 333 333 332 333 332 333 334 332 329 327 327 327 327 326
283 282 280 280 280 283 280 287 287 290 290 287 286 287 286 287 290 304 321 322 323 325 326 326 328 327 327 328 330 330 330 330 330 331 332 334 335 335 335 335 336 337 337 338 338 338 339 338 337 337 337 336 336 338 338 337 337 335 334 332 330 329 328 331 329 329 329 329 329 329 329 330 330 330 331 332 333 333 333 333 334 333 333 333 332 332 332 332 333 333 333 332 330 325 324 325 328
284 284 281 281 282 283 282 284 285 287 288 290 285 283 282 285 288 295 309 320 321 322 325 325 327 328 329 330 331 332 330 330 330 331 332 333 333 333 334 335 337 336 336 337 337 337 338 337 337 337 336 336 335 338 337 336 335 331 328 328 328 327 327 323 325 326 326 329 330 328 330 330 331 332 332 333 334 333 333 333 333 332 332 332 332 332 331 332 333 334 334 332 329 327 325 325 326
282 282 284 283 282 283 284 286 284 280 282 284 288 279 278 281 287 296 306 311 315 321 322 323 325 325 326 328 329 331 332 332 332 331 332 333 333 333 334 335 335 335 335 336 337 337 337 336 336 336 335 335 334 335 335 335 334 329 325 325 324 322 323 322 324 325 324 324 324 326 330 331 331 331 331 330 330 331 329 330 330 330 331 332 332 332 332 333 333 333 334 332 331 331 328 327 325
280 282 285 285 284 283 284 285 284 278 280 287 287 281 277 279 283 290 301 308 313 317 321 323 324 324 325 327 329 330 330 331 332 333 333 332 333 332 333 333 334 333 334 335 335 335 336 335 334 334 333 332 331 331 331 330 326 325 323 324 323 323 323 321 320 322 325 326 327 328 328 329 329 329 328 328 328 328 328 329 329 330 330 330 330 330 330 331 333 334 334 333 332 331 329 326 326
280 282 285 286 284 284 283 284 283 279 283 285 285 282 279 276 281 286 295 306 310 311 318 321 323 323 325 327 329 330 331 331 331 332 332 333 332 331 331 333 333 332 332 333 332 332 332 331 330 330 329 330 329 329 328 329 327 324 323 322 323 322 321 325 323 324 325 329 328 328 327 326 327 327 327 327 327 327 329 329 329 329 329 329 329 329 329 330 331 333 334 334 332 332 331 328 327
281 284 286 285 286 284 283 285 282 282 283 280 278 284 281 276 279 286 289 299 304 308 314 319 321 322 324 327 329 330 331 331 332 331 331 331 329 325 330 331 332 332 331 331 330 330 329 328 328 327 327 328 328 328 328 325 326 323 322 321 322 323 322 323 325 328 328 328 326 326 326 326 326 326 326 326 326 327 330 328 329 329 329 329 330 329 329 330 330 330 330 331 330 330 330 330 328
285 286 287 286 286 285 285 282 283 282 280 276 280 283 279 277 277 286 289 296 301 305 311 317 319 321 324 326 329 330 331 331 332 332 332 325 321 323 326 326 324 326 329 330 329 328 327 327 326 327 326 326 326 325 325 325 326 326 323 322 322 321 321 322 323 323 323 321 323 324 325 325 325 325 326 326 326 326 326 327 326 326 326 327 328 329 329 329 329 329 330 330 331 330 330 329 328
287 288 286 284 283 283 285 280 280 280 274 279 281 282 283 277 278 286 287 289 299 304 309 315 318 320 324 327 328 329 330 331 332 330 321 319 322 323 325 323 322 323 324 328 329 328 328 328 328 328 327 327 326 326 327 327 327 327 326 324 323 323 324 323 322 323 321 323 323 323 324 325 325 326 326 327 326 326 325 327 326 325 325 327 327 327 326 327 328 328 329 329 329 329 329 330 329
288 286 283 282 281 279 280 279 280 275 272 277 280 283 282 278 278 284 288 295 300 305 307 312 315 318 322 326 328 330 330 330 330 320 319 320 323 324 325 323 322 323 323 324 327 329 329 329 327 326 326 326 325 326 326 326 327 327 327 327 326 325 325 325 323 322 323 324 323 324 324 324 326 327 327 327 327 326 326 325 325 324 324 324 324 326 327 328 328 328 328 328 328 329 329 329 329
287 283 284 280 273 273 273 277 272 273 274 280 281 282 281 280 280 286 294 300 303 304 310 313 315 318 321 325 328 330 330 330 320 320 321 323 321 320 320 319 319 319 322 323 323 325 326 327 326 325 323 324 325 326 325 325 325 325 326 325 325 327 327 326 324 324 323 324 324 324 325 324 324 324 325 324 325 325 325 324 325 325 325 325 325 325 326 328 328 328 328 328 328 328 328 328 327
284 284 279 278 272 271 266 270 270 273 278 280 281 283 281 280 287 292 298 303 305 304 305 313 317 318 321 325 328 329 329 324 319 318 318 318 318 317 318 319 320 320 321 321 323 323 324 325 324 324 323 324 324 324 324 325 325 325 324 324 324 324 323 323 323 324 324 325 325 324 324 323 322 322 322 323 324 325 325 324 324 324 324 324 325 325 325 326 327 327 328 328 327 328 329 328 327
285 284 284 280 276 273 268 273 272 274 276 279 282 282 275 283 288 305 307 307 307 308 308 311 314 317 322 326 328 328 323 317 318 316 315 316 318 319 320 321 321 321 321 321 323 323 323 322 323 322 322 322 322 322 322 322 323 324 323 323 323 322 321 320 320 321 322 323 322 322 322 321 322 322 322 323 324 324 324 324 325 325 325 325 325 325 326 327 328 328 328 328 328 328 328 328 327
284 284 284 279 281 277 275 272 277 276 277 277 282 280 285 287 302 309 311 309 308 313 314 315 316 320 324 325 325 325 319 317 317 316 316 319 320 321 322 322 321 321 322 322 322 321 321 322 322 322 321 321 321 321 320 321 321 322 322 322 323 323 323 321 321 322 322 321 321 321 321 321 322 321 321 322 323 323 323 324 325 325 326 326 326 326 327 327 328 327 327 327 327 328 327 326 327
283 285 282 284 285 280 274 275 279 274 275 274 280 288 295 299 298 309 310 310 312 315 315 316 318 321 322 322 322 320 318 318 317 316 317 320 321 321 321 320 320 320 320 320 319 319 320 320 320 320 320 320 320 320 320 321 321 320 320 322 322 321 320 319 319 319 320 321 321 321 321 321 320 320 322 323 323 324 324 324 325 326 326 327 327 327 327 327 328 327 327 326 326 327 327 326 327
284 281 284 287 289 287 280 274 271 270 271 273 285 287 292 288 284 306 308 309 311 313 315 317 318 320 319 318 318 318 318 318 318 319 320 320 320 320 320 319 319 319 320 320 320 320 319 318 318 318 319 320 321 321 320 321 321 320 320 321 321 320 319 319 320 320 320 321 320 320 320 321 321 322 323 324 324 324 324 325 325 325 326 326 326 327 327 327 327 327 327 327 327 327 327 327 327
288 285 290 287 277 281 279 275 271 271 271 269 278 288 289 287 287 303 304 307 309 312 314 315 316 317 315 315 316 317 318 318 318 317 318 318 318 319 319 319 319 320 320 320 320 321 319 317 318 318 318 320 320 320 320 320 320 320 320 319 318 319 319 320 320 320 319 319 320 321 321 322 322 324 324 324 324 324 324 325 325 325 326 326 326 326 327 327 327 326 326 326 327 327 326 326 327
288 289 289 288 285 282 277 278 277 278 270 273 277 286 282 294 294 305 305 309 311 312 313 313 315 315 314 314 315 315 316 316 316 316 317 317 318 318 318 318 318 318 319 320 320 320 319 318 317 318 318 317 317 316 317 316 315 317 317 318 319 320 320 319 318 318 318 318 318 319 320 320 321 323 323 324 324 324 324 324 325 325 326 326 326 326 327 326 326 326 326 326 326 326 325 325 326
282 284 283 286 287 286 285 282 279 278 271 271 275 279 285 291 296 305 308 311 312 313 313 314 314 314 314 314 314 314 315 315 315 315 315 315 315 316 318 318 318 318 319 318 318 317 317 316 316 317 317 316 316 315 314 314 316 317 318 317 317 318 318 317 316 317 316 316 316 316 317 319 321 322 322 322 322 321 320 321 321 322 323 324 325 325 326 326 326 326 326 326 326 326 325 325 325
284 284 282 283 281 280 280 276 280 279 278 277 278 275 282 288 295 305 310 313 313 315 314 312 312 313 313 313 313 313 312 313 314 314 314 315 315 315 315 316 315 315 315 314 314 314 313 312 313 314 314 314 316 315 314 315 316 317 317 316 316 316 316 315 315 314 314 314 314 314 316 319 319 321 320 319 318 317 316 317 317 317 318 319 321 323 325 326 326 326 326 326 326 326 325 325 326
Wind_Speed
4 3 4 1 1 0 2 4 1 2 2 5 2 2 6 2 3 4 1 2 2 0 1 2 1 2 3 4 5 7 5 6 3 10 6 0 4 8 10 12 12 12 12 10 8 8 8 12 15 17 18 17 17 16 15 15 15 16 16 16 15 15 15 15 15 15 15 15 15 15 15 14 14 13 13 13 14 14 15 15 16 16 15 15 15 14 13 14 15 15 16 15 14 14 14 14 14
2 4 1 1 0 1 1 1 2 0 2 2 7 1 6 2 1 3 4 2 2 1 1 5 7 7 10 10 11 4 6 6 2 1 3 4 7 6 10 13 13 13 11 10 9 9 7 9 16 17 18 17 16 16 15 16 16 15 16 15 15 15 15 15 15 15 15 14 14 14 15 14 14 14 15 15 14 14 14 15 15 15 14 13 13 13 13 14 14 14 15 14 14 13 13 13 12
3 5 2 2 3 3 2 2 4 2 5 9 6 8 2 3 5 6 2 1 1 3 2 2 2 3 1 2 3 2 2 1 6 3 4 8 11 6 10 11 11 13 13 10 9 9 7 10 16 17 18 17 16 16 15 14 15 16 15 15 15 15 14 15 14 14 14 14 14 15 14 14 14 15 15 15 15 15 14 14 15 15 14 13 13 12 11 12 12 13 14 14 13 13 12 11 11
0 3 1 3 0 3 2 3 2 7 5 6 5 4 3 3 7 1 2 5 4 4 0 3 3 2 2 5 2 4 6 5 3 6 7 9 3 9 10 10 11 10 9 9 9 8 8 12 17 17 17 17 16 16 15 15 15 15 16 15 15 15 14 14 14 14 14 14 14 14 14 15 15 15 15 15 15 15 14 13 13 13 13 12 12 12 11 10 11 12 12 12 12 11 12 11 11
2 1 1 3 4 1 2 2 3 4 9 5 6 3 4 5 2 4 4 5 4 5 0 2 2 4 2 5 0 1 3 5 7 3 5 3 6 9 10 10 10 10 9 10 9 8 9 17 16 16 16 16 16 15 14 15 15 15 15 15 15 15 15 14 14 14 14 14 14 14 14 15 15 15 16 16 15 14 13 13 12 12 12 12 12 12 11 9 10 10 11 11 11 11 12 11 10
3 1 2 1 1 2 4 0 1 6 5 4 4 2 3 1 0 1 5 5 1 2 1 1 3 2 3 3 1 3 6 5 5 3 7 5 11 11 10 10 10 10 9 8 8 7 9 17 16 17 15 16 15 15 14 15 15 15 15 15 15 15 14 13 12 13 14 14 14 14 15 15 15 16 15 16 15 13 12 12 11 11 11 11 11 11 11 10 9 9 9 10 11 11 12 11 10
0 3 4 3 2 3 4 3 5 5 9 5 3 4 1 0 2 2 5 6 2 3 2 1 4 3 5 0 3 3 3 4 4 2 3 10 11 11 11 9 10 10 9 8 7 7 10 16 15 15 16 16 16 15 15 15 15 16 15 15 14 15 15 13 11 13 14 14 13 14 15 14 15 15 15 15 14 12 12 10 10 10 10 10 10 10 10 10 10 9 9 9 10 11 11 11 11
1 2 1 2 1 1 2 2 5 5 6 6 2 4 2 2 1 2 5 1 2 1 1 5 2 2 0 1 3 2 6 3 7 10 11 11 11 11 10 9 9 10 9 8 7 7 14 16 15 14 16 16 16 15 15 15 15 15 15 15 14 14 14 13 12 11 11 13 14 14 13 13 14 14 15 14 13 11 10 10 9 9 9 9 10 11 9 9 9 9 10 10 11 11 12 12 12
3 5 0 4 2 2 0 4 6 3 6 4 7 5 5 2 3 2 4 3 2 2 5 5 2 3 1 4 2 2 2 3 10 12 11 11 11 10 7 9 10 9 9 8 7 6 8 15 13 14 15 16 15 15 15 15 14 15 15 15 14 13 12 12 12 11 10 10 13 13 14 13 13 14 13 12 12 11 11 10 9 8 9 9 10 10 9 8 8 9 9 10 11 11 11 12 13
2 2 2 2 4 5 2 6 1 5 3 3 5 8 4 2 3 5 5 5 6 3 3 3 3 3 5 5 1 2 1 6 11 11 10 10 10 8 8 8 9 11 9 8 7 7 7 15 14 14 13 15 15 15 14 14 14 15 15 14 11 11 11 10 9 10 10 11 11 13 12 13 13 13 12 13 12 11 10 9 8 7 8 8 9 9 9 8 8 8 9 9 10 11 11 12 12
1 4 2 2 1 3 7 7 6 6 4 4 7 10 9 5 5 3 6 6 3 4 1 5 5 8 5 3 1 2 5 8 12 11 9 9 9 8 8 7 8 9 11 9 8 8 8 9 16 15 13 13 13 13 13 13 13 13 13 13 11 11 11 9 10 11 10 11 13 13 12 12 13 12 12 13 12 11 10 9 8 7 8 8 8 9 8 9 8 8 7 8 8 9 10 11 10
1 1 1 2 3 6 5 4 5 7 6 2 7 1 2 5 4 2 5 7 3 4 6 5 6 7 7 4 1 1 4 4 8 10 9 8 9 8 8 7 8 8 10 9 8 8 8 8 9 14 14 13 13 14 13 13 13 13 14 14 12 12 11 9 10 11 11 12 12 11 12 11 12 12 12 13 11 10 9 8 7 6 7 7 7 8 8 8 8 7 7 7 8 9 9 10 9
3 2 5 3 3 2 2 1 5 3 4 5 5 0 1 2 5 8 6 9 5 7 3 4 13 4 5 4 2 4 5 3 5 9 9 9 9 7 7 8 8 9 9 9 9 9 8 7 7 8 10 16 13 13 13 13 12 13 13 12 13 12 12 10 11 11 11 12 11 11 11 11 12 12 12 12 12 10 9 8 7 6 6 6 7 7 7 7 7 7 7 7 8 8 9 9 8
4 6 6 4 1 2 3 4 0 1 5 2 2 3 2 3 3 6 6 6 9 11 3 10 10 7 6 6 3 4 5 5 7 8 8 10 8 8 8 8 9 8 8 9 9 9 8 7 7 7 8 7 7 10 13 14 13 12 12 11 12 10 12 10 9 9 11 11 11 10 11 12 12 11 12 12 11 10 9 7 6 5 5 6 6 6 6 7 6 6 6 7 7 8 9 9 8
3 2 3 1 1 1 3 4 4 4 8 0 1 4 5 3 2 4 11 8 3 1 7 7 5 8 6 12 7 9 8 9 9 10 10 11 10 9 9 8 8 8 8 8 8 8 8 8 7 6 6 5 5 5 5 9 14 13 12 12 12 12 11 11 11 10 11 10 10 10 10 11 12 12 12 11 11 9 9 8 6 5 4 5 6 6 6 6 6 6 7 7 7 9 10 8 8
4 4 2 2 4 4 5 4 1 1 7 1 1 3 6 2 2 1 4 3 4 3 11 6 1 2 4 8 5 12 12 10 9 11 11 13 10 9 9 9 7 7 7 8 7 6 7 7 6 6 6 5 5 5 5 5 11 14 13 13 14 12 10 11 12 11 10 10 10 10 10 8 8 8 12 9 10 10 9 6 6 4 3 4 5 6 6 6 7 7 8 8 8 9 9 8 8
2 4 0 1 5 4 4 3 4 4 5 3 5 6 6 7 5 2 2 5 15 6 3 1 2 1 9 2 12 13 12 11 12 14 13 12 12 11 9 8 7 7 6 6 6 7 7 7 8 5 6 5 6 5 5 5 8 13 10 13 13 11 10 11 12 11 9 9 8 9 7 5 4 4 6 4 8 5 7 7 6 5 4 4 4 5 6 6 7 7 8 9 9 9 9 8 8
2 2 3 4 5 4 4 5 6 1 1 6 8 4 5 9 2 1 4 8 8 5 6 2 8 7 5 4 13 14 12 14 14 18 14 13 9 13 12 9 8 8 7 7 6 6 6 6 9 7 5 6 6 5 4 4 5 8 5 5 5 7 8 7 6 4 6 4 9 7 5 4 4 4 5 6 4 4 4 6 6 5 4 3 3 4 5 5 6 7 8 10 12 8 7 5 4
3 1 3 9 4 6 4 3 4 2 6 7 8 2 1 7 1 1 5 3 8 8 4 4 9 10 11 12 15 15 15 15 15 15 17 14 14 15 11 9 8 9 7 7 7 7 6 6 6 8 7 6 6 5 4 4 5 4 4 5 4 6 5 5 4 4 4 4 4 4 4 4 4 4 4 5 4 5 4 5 4 4 3 2 2 3 3 4 5 5 7 9 10 8 4 4 4
4 6 5 7 4 4 5 3 4 3 6 10 9 5 4 6 0 1 4 3 2 10 10 6 10 12 15 13 15 16 15 15 14 14 15 16 13 12 13 12 9 9 8 6 8 5 6 6 6 7 8 7 6 5 4 5 5 4 4 4 4 4 4 4 4 4 4 3 3 4 4 4 3 3 5 5 6 4 3 4 2 3 3 2 2 3 4 4 5 5 6 8 6 3 3 3 3
2 3 5 3 5 4 6 5 8 10 4 4 5 5 5 2 1 2 5 7 2 4 9 19 15 16 17 17 17 16 14 16 14 14 14 14 11 7 9 9 9 6 6 6 6 7 6 6 6 6 6 6 6 5 5 5 5 5 4 4 4 4 4 4 4 4 3 3 3 3 3 3 3 3 3 4 4 3 3 3 3 3 2 3 4 2 2 1 2 2 2 3 4 3 3 3 3
2 6 3 4 1 3 5 3 6 3 4 3 4 6 5 1 0 6 11 10 11 10 12 6 16 20 21 21 18 16 15 16 15 15 15 14 14 11 8 7 5 4 5 6 7 9 7 7 6 5 6 7 6 5 5 7 6 5 5 5 4 4 4 4 4 4 3 3 2 3 3 3 3 3 3 3 3 3 2 1 1 1 2 2 2 1 2 1 1 1 1 2 3 4 3 1 3
4 2 3 4 5 6 0 1 2 1 2 4 5 4 3 1 1 4 12 2 4 1 2 4 10 18 19 18 20 19 19 18 15 15 14 13 12 10 10 8 9 7 6 5 5 6 6 8 7 7 6 6 6 6 5 5 5 4 4 5 4 4 4 4 3 3 2 3 3 3 3 2 3 2 2 2 3 3 2 2 2 1 1 1 1 0 2 2 1 0 0 0 2 5 4 3 3
3 6 0 4 4 7 5 4 7 4 3 6 2 5 5 6 4 3 8 4 5 2 9 9 11 10 14 17 17 19 19 16 14 12 12 13 12 11 10 9 8 6 5 6 5 5 7 8 8 8 7 7 6 6 5 4 5 5 5 6 5 5 5 4 4 3 3 2 2 2 2 2 2 2 1 3 3 3 3 2 2 2 1 1 1 2 2 3 2 1 1 1 1 4 5 4 4
4 3 2 4 5 5 6 4 4 4 6 7 5 4 8 4 2 6 2 2 0 6 12 12 13 14 10 10 15 14 13 13 12 11 8 8 8 8 7 6 8 7 8 8 6 7 7 6 7 8 7 7 5 7 7 4 5 5 4 4 5 6 4 4 4 3 3 2 2 2 3 3 2 2 1 1 3 3 3 2 2 2 2 2 2 3 3 4 4 2 2 2 2 2 4 3 4
4 7 3 4 6 6 5 5 6 5 4 2 0 6 8 3 2 2 1 3 4 9 13 14 15 15 13 12 10 12 12 12 11 11 10 8 9 10 9 8 8 9 9 8 8 7 5 5 6 7 7 6 6 6 5 5 5 5 4 4 5 5 4 4 3 4 2 2 2 2 2 2 3 3 2 1 2 3 3 3 3 3 3 2 2 3 3 3 4 4 3 3 3 3 2 3 3
3 3 4 5 6 4 5 2 4 1 3 3 3 5 4 1 3 2 1 6 8 12 15 14 15 15 14 13 11 9 12 11 11 10 9 9 9 9 9 8 9 8 9 8 7 6 5 6 5 6 6 8 6 6 6 6 5 4 4 4 4 4 4 4 3 3 2 2 2 2 2 2 3 3 3 2 2 3 3 3 3 2 2 3 3 3 1 2 3 3 3 3 3 4 3 3 4
2 3 1 4 7 5 6 6 8 1 4 4 7 5 2 3 0 3 8 8 11 14 15 16 14 12 12 12 12 9 9 9 9 9 11 12 9 9 10 9 9 8 9 8 7 6 6 6 6 5 6 7 7 6 7 6 6 5 5 3 3 3 4 3 3 3 3 2 2 2 2 1 2 2 4 3 3 3 2 2 2 2 3 3 2 2 2 1 2 3 3 3 3 3 3 2 2
2 0 3 5 4 4 2 4 4 4 4 4 6 3 2 1 2 1 8 9 11 13 16 15 14 11 11 11 9 9 9 9 8 7 8 7 7 7 9 8 8 8 5 7 7 7 7 7 6 6 6 6 6 7 6 5 5 4 4 3 3 3 3 3 3 2 2 2 2 2 2 2 3 3 3 4 3 3 2 2 2 3 4 4 5 2 2 2 0 2 4 3 3 2 2 1 1
1 1 2 3 4 6 7 1 3 2 3 6 4 2 5 7 5 2 8 12 13 12 12 13 11 11 10 10 8 8 8 8 8 6 8 8 8 8 9 8 8 7 7 6 7 7 6 4 5 5 6 7 6 5 5 5 4 4 3 3 3 3 3 3 3 2 2 2 2 2 2 3 4 3 3 2 2 2 1 2 3 3 3 4 4 1 4 4 4 2 3 3 4 3 4 4 3
3 2 1 2 2 5 3 1 1 1 3 6 4 2 5 7 4 6 7 11 17 15 14 13 12 11 11 10 9 7 7 7 7 8 8 8 7 7 8 8 8 7 6 7 9 8 7 6 6 5 6 6 6 5 6 5 4 4 4 3 3 3 3 3 3 2 2 2 2 3 3 4 4 4 3 2 2 2 2 2 2 2 2 3 4 2 3 3 3 5 3 4 3 4 4 3 4
1 2 5 2 5 6 8 2 3 5 1 3 7 2 7 3 5 9 8 9 11 15 14 13 10 10 10 11 10 8 6 7 7 8 8 7 7 7 8 9 7 7 8 7 7 7 7 6 7 6 6 6 6 5 5 6 5 4 4 4 3 2 3 3 3 2 2 2 3 4 4 4 4 4 3 3 4 3 3 3 3 2 3 2 3 3 4 4 4 4 4 4 4 4 3 4 3
3 4 3 2 2 4 4 2 4 8 1 1 5 4 1 0 4 8 6 10 9 12 14 12 9 11 9 10 9 8 8 9 7 8 8 7 7 7 7 8 8 7 7 8 8 8 7 7 8 7 7 7 6 6 6 5 5 5 4 4 3 3 2 2 2 3 3 3 4 4 5 5 4 4 4 4 4 4 3 3 2 1 2 2 3 4 4 4 5 5 3 4 6 5 4 4 4
4 1 5 3 4 2 2 6 2 2 0 1 1 2 3 2 8 10 11 11 9 10 13 13 10 10 10 8 8 9 8 8 8 7 9 8 7 8 7 8 8 8 6 7 8 8 7 7 6 6 5 5 6 6 6 5 5 5 4 4 4 3 2 2 3 3 3 3 4 4 4 4 5 5 4 4 4 3 3 4 3 3 2 3 3 3 4 4 5 5 5 5 6 4 4 5 5
8 3 3 0 0 2 2 2 1 1 1 3 1 2 1 0 8 10 11 11 11 12 12 13 10 10 10 8 8 9 8 8 7 7 9 9 9 8 7 8 7 7 6 7 7 6 6 6 5 6 6 6 6 6 6 6 6 5 4 4 4 3 2 2 3 3 3 3 4 4 4 4 5 5 5 4 4 3 4 4 3 3 2 4 5 6 5 5 5 5 6 5 4 5 5 5 6
5 6 5 4 5 3 2 5 2 0 0 2 3 4 3 3 8 7 7 11 11 11 10 9 9 11 10 10 9 8 8 7 6 7 8 8 8 9 8 8 7 7 6 7 7 6 6 6 6 5 6 6 6 5 6 6 5 5 4 4 3 2 2 3 3 4 4 5 5 4 5 5 5 5 4 4 5 6 4 4 4 4 6 5 5 4 4 4 5 5 6 7 6 4 5 5 4
7 4 4 3 4 3 3 4 5 2 1 3 5 5 5 6 10 10 11 8 7 9 10 10 10 10 9 9 9 9 9 7 6 7 8 8 9 9 8 8 8 7 7 7 7 7 7 7 7 6 5 6 6 6 5 5 4 4 3 4 3 3 3 3 3 4 5 6 6 5 5 4 4 5 4 4 6 6 5 5 5 5 5 6 6 5 5 6 6 6 5 5 6 5 4 5 4
6 5 4 3 2 3 2 1 3 3 2 2 1 5 6 6 8 9 7 9 11 13 12 12 12 11 10 10 8 10 8 5 8 8 9 8 9 10 8 8 8 9 8 8 8 7 7 6 6 5 5 5 5 5 5 4 3 3 3 3 2 2 3 3 5 5 6 5 5 5 5 5 6 6 5 5 6 6 5 4 5 4 4 4 5 5 6 6 6 6 5 4 3 4 4 4 3
1 3 3 1 3 3 5 4 3 2 1 6 1 4 7 4 7 6 10 13 12 12 15 15 13 11 9 9 8 10 9 8 9 8 8 8 10 9 9 8 8 9 9 9 7 7 6 6 5 5 4 5 4 5 5 4 3 4 3 3 5 3 3 4 5 4 4 4 4 4 4 5 5 5 5 6 5 5 5 5 4 4 5 5 5 6 5 6 6 6 5 4 3 3 5 4 6
5 2 3 5 2 3 2 0 3 1 2 1 4 5 4 4 0 5 9 13 11 12 13 12 13 14 12 12 12 14 11 11 12 12 10 8 9 8 8 7 7 7 7 7 7 7 5 5 5 5 5 4 4 5 5 5 5 4 4 5 5 3 2 2 2 2 2 2 4 4 4 4 5 5 4 4 4 5 5 5 5 4 5 5 5 6 5 6 6 6 7 7 5 3 4 4 7
2 6 4 3 2 1 3 1 3 3 2 1 2 3 3 1 3 3 7 9 5 7 8 6 8 10 12 9 9 10 8 9 9 10 10 10 11 10 9 8 7 7 6 6 7 6 4 5 5 5 4 5 4 5 5 5 4 4 3 3 2 2 1 2 1 1 3 3 4 3 5 4 4 5 4 4 4 4 4 4 4 4 4 4 5 5 6 6 6 6 7 6 5 5 5 5 7
3 4 7 5 4 4 1 2 3 6 2 2 2 1 4 2 5 13 11 7 8 6 10 12 11 7 7 9 11 10 7 8 8 8 8 8 8 8 7 8 7 6 6 5 4 4 4 4 5 4 4 4 5 4 5 5 5 5 5 5 3 1 1 1 1 0 2 2 4 2 2 3 4 4 3 3 4 4 4 4 4 4 4 4 4 5 6 6 7 8 7 8 7 7 6 5 6
4 7 8 6 6 5 4 2 2 0 2 1 2 4 4 4 4 8 8 11 14 7 12 12 11 9 9 10 10 12 11 11 10 9 9 8 8 8 7 7 6 6 4 4 3 3 4 4 4 5 5 4 4 4 5 5 4 4 5 5 5 4 3 3 2 2 3 4 3 3 3 2 3 4 4 3 4 4 4 4 5 6 6 6 6 6 6 7 6 6 6 7 8 8 8 9 7
5 2 11 7 6 6 4 2 3 3 2 5 1 3 1 2 7 6 5 14 14 9 11 12 12 11 11 11 12 14 12 12 11 11 9 8 7 7 8 7 6 5 5 5 4 4 4 4 4 5 4 5 4 5 5 6 6 4 4 3 3 3 2 0 2 3 2 2 2 3 3 3 1 3 3 3 4 4 5 5 5 5 6 6 5 5 6 6 6 6 7 8 9 8 9 10 10
3 3 10 8 8 6 4 3 2 2 1 9 3 0 1 3 4 2 3 7 7 12 12 13 14 13 12 13 13 14 13 13 13 12 11 8 8 6 7 9 8 7 6 5 5 4 3 4 4 4 5 5 5 5 5 2 3 3 3 3 3 1 3 2 1 1 0 2 2 3 3 4 4 1 2 2 3 4 4 4 5 5 5 5 4 5 5 6 8 8 8 8 9 9 8 7 7
4 4 3 5 4 3 6 6 6 1 2 7 4 2 2 6 5 1 1 6 12 13 14 15 14 14 13 12 12 12 11 11 10 10 8 10 11 4 6 9 9 6 5 5 4 4 3 3 3 4 4 4 4 4 5 5 5 5 5 3 3 1 0 1 2 3 3 2 3 3 3 4 4 5 4 2 2 0 1 3 4 4 4 4 4 5 6 7 7 8 8 9 8 9 8 8 9
3 9 7 4 3 3 3 3 3 2 3 9 4 5 4 4 4 7 10 9 13 10 7 8 10 11 13 14 15 14 14 12 11 9 11 10 10 7 8 10 9 9 7 6 4 4 4 4 4 4 3 4 4 4 5 5 4 4 4 3 3 3 2 3 4 5 4 5 5 4 4 4 4 5 4 5 4 3 3 2 2 3 3 3 4 4 5 6 6 6 7 8 9 10 8 10 9
8 3 5 6 2 4 2 1 2 2 7 4 5 8 6 6 3 5 7 4 3 13 14 14 14 16 16 14 13 14 14 12 10 12 12 11 11 9 7 7 9 11 10 9 5 3 4 4 5 5 3 4 4 4 6 5 5 5 5 4 4 3 3 4 6 5 4 3 3 4 4 4 5 5 5 5 6 5 5 4 4 3 3 4 4 5 5 6 6 6 7 7 8 9 9 10 9
6 4 6 9 2 2 3 2 3 7 6 1 0 3 2 7 7 5 5 7 4 6 12 18 18 17 16 14 14 13 12 11 9 11 10 9 9 7 6 5 3 1 7 12 10 5 3 5 5 7 4 4 5 5 7 6 6 5 5 5 4 4 6 6 5 5 3 4 4 5 6 6 6 6 6 7 7 7 6 6 6 5 5 4 5 5 5 5 5 6 7 8 8 9 9 9 8
8 8 7 7 4 4 5 3 0 4 4 4 1 2 3 3 5 4 6 7 5 5 6 9 18 20 18 16 14 10 11 11 12 8 8 8 6 4 7 5 6 3 6 5 7 9 5 2 6 8 5 4 5 5 6 8 7 5 5 5 5 5 5 5 5 5 4 4 4 4 4 4 5 5 6 6 6 6 6 5 5 6 5 6 6 6 6 6 6 6 7 8 8 7 7 9 9
9 4 9 8 6 5 5 5 9 7 6 1 2 3 5 3 4 2 8 7 5 5 6 5 5 4 5 9 9 9 12 13 12 12 12 14 9 4 7 8 8 8 7 4 3 4 8 5 5 8 6 4 5 5 6 8 6 5 6 6 5 5 6 5 4 4 5 5 5 5 5 4 5 5 6 6 6 7 7 6 6 6 6 7 7 7 6 7 7 7 8 9 8 6 8 8 8
2 4 7 6 10 6 3 5 4 3 2 0 2 4 2 4 1 3 3 4 5 5 5 7 6 7 9 10 9 8 12 13 12 12 8 9 10 9 8 7 8 9 9 6 4 2 7 6 6 6 6 5 5 6 6 6 5 6 6 7 6 5 3 3 5 4 4 5 5 4 4 5 5 5 5 6 7 6 7 7 7 7 7 7 6 7 7 7 8 8 8 7 8 7 9 11 9
5 6 9 7 5 3 3 1 1 2 3 7 2 3 3 5 2 1 2 5 5 6 8 8 8 10 10 8 7 8 10 12 13 14 11 12 11 8 7 5 5 7 10 9 7 4 1 4 7 7 6 5 5 5 6 5 6 7 5 5 5 4 5 6 5 5 6 5 4 4 4 5 4 4 5 5 6 6 6 6 6 6 6 6 7 6 7 8 8 8 8 8 8 7 8 9 8
6 7 7 4 1 2 4 3 1 1 5 4 3 5 1 1 2 4 5 7 8 9 10 10 10 10 9 6 6 9 11 12 13 12 9 12 11 10 9 8 8 9 9 9 8 4 1 2 5 6 5 7 5 6 5 4 6 6 5 5 5 6 6 6 5 6 5 5 5 5 6 6 6 6 5 5 5 6 6 7 6 7 6 6 6 6 7 8 8 8 7 7 7 7 8 7 7
10 7 7 9 5 9 2 2 2 1 2 2 1 1 2 6 3 5 8 10 11 11 9 12 11 10 8 7 8 9 12 12 13 14 11 10 11 11 11 11 11 11 12 11 8 6 1 1 4 6 7 6 5 4 4 4 4 4 5 5 5 6 6 6 6 5 5 6 6 6 6 5 5 6 6 6 6 6 6 6 7 7 7 7 6 6 7 7 7 8 8 7 7 7 7 7 5
3 7 10 4 4 3 5 7 4 5 3 0 2 2 5 6 4 9 10 12 10 12 13 13 15 12 10 9 10 10 11 11 12 13 11 10 11 13 14 12 10 10 9 8 8 4 3 4 5 6 6 5 4 5 4 4 3 4 5 6 7 7 8 7 6 6 7 7 6 5 6 6 7 6 6 6 6 7 7 8 7 7 7 7 7 6 7 8 8 7 7 7 6 7 7 7 6
4 6 5 2 0 1 6 1 3 3 4 4 2 2 5 6 4 7 8 12 14 15 15 12 12 11 11 10 10 9 10 9 12 13 12 10 12 13 12 13 10 8 8 6 6 6 4 3 5 4 7 6 5 3 4 4 4 6 8 9 8 8 7 6 7 8 6 5 5 5 5 5 5 6 6 7 7 8 8 8 9 8 9 8 8 8 7 7 7 7 7 7 7 7 8 7 6
8 8 8 7 6 4 10 7 2 2 4 3 4 6 6 7 2 4 9 9 11 10 8 7 9 10 12 10 10 9 10 10 12 15 13 10 11 11 10 10 10 9 8 7 5 5 6 6 4 5 5 4 6 6 5 5 6 7 9 8 7 7 7 7 7 6 6 6 6 6 5 5 6 6 7 7 8 8 8 8 8 8 8 8 8 8 8 7 7 7 7 6 6 7 6 7 6
Wind_Direction
319 344 314 338 59 121 57 357 203 300 84 230 226 174 246 237 282 334 253 348 331 276 231 50 94 9 183 215 149 104 24 145 197 138 214 201 132 131 127 129 132 134 137 139 139 134 137 141 133 131 130 127 127 126 126 124 123 122 122 121 122 121 121 119 115 114 115 116 117 117 116 114 113 110 108 107 103 103 101 101 101 102 102 102 103 104 103 105 106 103 98 97 98 98 96 96 97
337 331 14 30 241 56 224 119 99 327 26 313 245 154 239 302 337 209 261 138 211 322 71 103 84 93 76 94 126 131 41 34 149 112 91 96 111 107 131 135 137 138 140 141 138 132 140 141 136 132 131 129 128 128 127 127 125 124 123 123 122 122 121 119 117 115 117 118 118 118 117 116 114 111 107 103 101 101 100 98 96 96 96 95 100 101 108 108 104 101 98 98 98 95 95 96 96
338 5 10 31 24 70 94 34 261 163 183 239 253 218 326 284 246 256 82 190 254 197 173 86 113 79 26 337 45 30 227 46 102 114 107 134 125 152 143 141 138 140 141 141 139 138 140 143 137 134 132 130 130 130 130 126 126 127 126 124 125 124 122 120 118 117 117 118 119 118 116 115 111 108 105 104 102 96 91 95 95 95 95 96 97 97 97 112 111 104 100 99 97 95 90 86 83
70 38 129 66 206 25 64 32 99 149 198 223 283 245 225 199 253 314 256 253 253 181 327 16 52 292 110 50 134 64 87 116 129 134 134 166 160 141 142 133 131 134 134 138 139 140 143 142 138 134 133 131 132 132 131 127 128 128 128 127 127 125 123 122 119 118 118 119 118 116 116 115 112 107 107 104 97 94 94 94 95 95 96 97 97 95 96 110 117 111 105 102 96 92 87 81 74
56 323 96 95 114 328 118 198 160 126 227 168 220 269 232 216 233 351 297 298 268 169 328 103 67 342 83 128 209 123 223 113 140 157 125 75 119 135 133 129 130 137 138 141 139 138 143 140 136 134 133 134 134 133 129 128 130 130 130 130 130 128 126 125 123 121 121 119 118 118 117 115 111 109 110 104 100 98 97 95 94 97 99 97 94 94 95 104 116 120 115 104 97 92 86 80 72
59 42 350 96 233 182 58 83 249 214 237 158 233 248 228 289 44 304 302 316 174 134 147 78 161 200 25 358 6 84 127 147 156 80 146 132 134 134 132 131 131 138 135 131 137 143 139 137 136 136 135 135 135 133 129 131 132 133 132 132 132 130 128 126 121 120 120 120 122 120 118 116 113 111 107 101 101 101 100 100 100 102 102 99 95 95 100 108 107 107 109 106 98 93 88 82 74
302 41 352 34 23 55 185 174 219 222 257 169 224 253 231 229 212 328 325 354 347 89 41 104 102 110 88 163 57 61 311 160 130 146 108 132 130 131 134 131 135 133 127 131 135 138 136 134 138 137 137 136 133 132 131 132 134 136 135 134 133 132 130 126 121 121 122 124 123 122 119 116 113 112 108 103 103 104 105 103 101 99 97 98 101 98 95 102 114 113 109 106 99 96 90 83 75
62 124 284 111 203 59 246 215 242 168 272 188 240 266 294 129 209 341 298 65 294 325 64 125 73 95 124 338 141 284 10 5 102 99 116 128 130 129 129 132 129 126 127 128 133 135 137 136 137 137 136 136 135 135 134 135 135 137 137 136 135 133 131 127 122 119 123 125 125 120 118 115 113 112 107 108 109 110 109 107 101 96 96 98 98 94 94 102 112 116 111 108 103 98 91 83 78
351 83 299 80 188 32 29 231 252 231 276 302 278 235 260 224 238 246 273 237 296 161 163 154 108 87 237 56 31 305 28 60 102 118 123 128 133 132 129 133 136 126 124 128 132 133 127 139 136 135 136 138 136 136 137 137 137 138 138 137 136 132 131 128 122 121 121 119 121 123 121 114 114 111 108 110 112 110 101 97 96 100 98 96 93 95 101 105 109 111 109 106 102 97 92 85 82
33 87 252 162 121 216 328 283 205 238 228 233 249 269 263 199 232 195 237 288 224 152 167 60 109 116 125 99 91 334 91 112 112 116 124 131 131 124 124 125 132 130 130 132 130 124 133 136 135 135 138 138 136 138 137 138 138 139 139 137 135 132 132 122 111 117 115 117 122 117 115 115 117 113 111 110 105 99 99 99 100 99 98 99 96 98 99 99 106 107 102 102 100 96 90 84 86
196 10 146 109 113 214 217 267 263 294 280 289 283 244 239 243 222 213 202 236 191 164 129 117 51 126 111 102 348 310 111 132 124 127 128 125 122 121 118 115 125 134 133 130 127 128 132 139 138 140 138 136 137 136 136 137 138 137 138 135 135 133 124 111 112 113 121 121 122 118 118 121 118 115 113 106 102 102 103 102 100 100 99 98 98 96 96 93 97 98 94 93 91 89 85 85 88
51 118 44 141 196 174 234 216 260 275 282 314 273 2 214 201 159 191 231 224 177 164 168 166 170 130 95 127 273 112 117 109 124 123 118 119 121 110 112 117 124 127 128 127 125 126 134 135 136 142 136 135 137 138 138 138 138 138 138 137 136 131 124 114 118 126 122 117 118 118 122 120 115 112 107 103 104 106 106 105 103 100 100 99 100 96 89 96 102 105 101 93 88 86 89 87 92
125 110 88 96 227 164 216 275 258 268 321 260 249 226 173 175 182 207 198 204 167 131 195 207 137 130 125 164 131 124 134 116 122 120 117 121 119 109 110 118 121 124 128 124 126 129 130 133 136 136 141 141 139 140 139 140 137 138 137 135 135 134 133 122 132 130 119 117 121 125 125 123 119 114 110 113 109 103 101 100 97 95 94 97 88 85 86 88 102 106 104 95 91 91 88 85 90
121 178 131 218 77 175 158 230 343 355 280 259 225 299 325 280 233 202 166 178 188 176 168 147 140 117 88 116 146 191 173 142 132 118 115 116 115 117 120 118 124 125 123 128 130 132 133 129 130 134 140 137 140 139 140 139 136 134 131 132 133 133 133 128 128 126 124 121 124 131 130 129 121 113 110 106 105 105 100 95 92 87 78 77 79 77 75 77 79 82 84 88 91 89 84 81 90
176 158 86 126 209 46 244 184 214 199 264 35 252 16 327 252 221 235 176 174 179 143 113 119 152 125 193 167 182 198 169 150 129 121 116 121 123 125 127 126 124 124 125 131 131 132 128 128 128 124 125 123 119 125 127 137 134 134 132 132 136 136 132 136 133 127 124 124 129 137 135 134 127 118 112 109 109 108 105 93 85 73 53 60 64 60 61 59 62 60 64 65 75 78 77 75 83
153 89 91 160 244 177 260 191 149 97 259 233 291 308 333 308 192 107 256 166 150 135 135 162 284 171 162 186 195 162 140 135 126 118 124 129 126 126 130 130 125 129 135 134 131 126 129 129 127 126 120 120 121 116 121 127 136 136 137 140 134 135 137 137 135 131 130 131 134 137 139 136 126 119 116 114 112 110 104 101 94 76 53 46 50 48 46 44 46 45 42 48 59 72 77 74 89
74 81 155 86 246 162 251 175 149 221 253 278 286 14 10 325 294 77 282 149 128 153 65 41 197 52 153 198 153 121 130 128 125 128 133 134 136 138 139 141 140 137 135 134 136 133 132 133 133 123 123 125 121 114 108 118 138 138 137 138 136 134 134 138 142 139 138 139 136 130 111 107 102 102 104 109 112 110 118 114 107 98 70 40 36 40 38 38 37 34 36 39 50 63 70 75 93
73 153 129 240 198 180 210 192 190 216 307 306 331 351 358 334 344 42 38 43 103 81 79 53 48 43 102 115 115 119 126 133 133 138 139 139 137 135 146 152 149 143 140 138 131 133 129 134 141 137 121 124 119 108 110 119 121 127 119 125 129 133 132 129 126 132 142 128 137 127 119 116 105 107 115 114 97 115 111 115 114 107 104 67 28 28 40 33 38 31 33 40 50 48 48 50 60
148 128 129 233 181 239 166 203 222 336 296 296 294 343 28 301 175 30 85 118 126 96 68 81 92 95 94 107 120 127 138 139 143 145 144 140 143 149 156 156 148 141 146 141 139 143 137 139 142 144 131 126 115 112 117 106 103 102 102 116 125 133 128 109 95 106 90 109 116 128 122 112 113 104 101 113 115 118 115 114 113 108 96 92 55 28 33 29 31 31 35 51 54 43 41 41 63
221 131 223 241 212 246 225 227 267 236 264 290 308 307 6 294 245 43 121 140 139 145 135 116 134 131 131 133 130 138 143 143 151 151 148 148 150 154 161 157 154 155 148 145 141 137 142 148 143 145 145 130 121 119 109 102 103 100 107 105 110 105 101 107 111 116 116 120 117 102 105 105 92 92 117 93 105 75 58 72 87 100 82 57 44 37 32 26 28 43 41 57 69 56 37 49 69
265 170 206 228 216 223 258 202 230 252 276 279 286 305 340 308 190 105 147 122 227 250 206 163 161 150 146 145 146 145 147 151 154 155 149 148 149 150 159 165 159 151 140 132 140 154 150 150 145 145 144 135 126 130 122 114 113 108 110 110 107 103 108 111 112 111 113 106 97 88 87 84 66 72 60 59 65 80 63 57 39 55 48 43 31 10 13 25 34 40 45 67 82 81 49 50 76
102 213 186 210 121 225 251 220 233 233 214 244 297 343 293 321 36 148 165 168 198 207 202 211 157 151 151 154 154 151 152 157 159 155 153 154 158 155 153 153 150 122 137 144 153 162 160 156 152 147 145 141 130 118 119 131 125 128 127 129 117 117 126 123 113 115 109 105 88 98 86 69 66 53 64 66 79 95 110 100 90 84 81 84 41 348 323 351 36 65 64 75 96 109 124 158 104
235 297 242 227 224 246 260 273 249 155 294 284 312 269 327 58 292 206 172 214 289 210 147 153 168 158 154 147 151 156 160 164 164 162 156 152 156 156 160 161 166 155 155 154 151 161 158 162 156 150 152 140 129 118 123 124 126 122 121 130 127 132 135 128 130 126 113 117 117 113 101 90 83 85 86 117 127 140 165 178 156 126 130 139 114 254 289 303 292 4 77 156 127 125 140 163 164
176 243 281 291 231 242 252 268 268 290 261 266 225 312 309 281 256 188 183 307 276 144 122 127 132 135 143 150 161 160 163 162 162 162 160 159 160 160 160 157 156 152 160 155 173 163 171 165 161 157 151 149 137 127 128 122 117 127 143 150 138 147 140 145 154 160 135 122 129 131 110 93 102 95 99 132 148 151 186 175 161 143 150 167 173 209 252 273 277 257 263 239 178 126 130 167 184
203 260 246 257 274 243 251 259 307 287 261 254 262 276 262 241 201 150 221 303 93 111 115 124 129 136 141 145 153 155 156 158 160 157 148 146 148 139 145 145 150 157 163 173 180 186 176 161 155 159 151 149 125 136 142 119 126 136 150 144 152 162 137 154 164 139 122 121 113 120 127 121 105 109 141 134 146 156 158 175 170 193 174 193 172 222 218 265 285 263 263 260 235 154 131 159 170
205 221 206 255 265 283 289 307 273 267 275 197 9 256 273 265 287 76 265 111 145 123 123 134 139 146 149 152 152 156 161 160 153 151 152 141 141 147 156 155 154 164 172 175 178 184 164 155 157 157 153 146 134 131 128 131 137 151 155 151 171 160 161 152 143 123 115 128 121 117 119 129 136 142 147 222 146 163 165 162 172 206 200 186 181 223 226 247 276 307 298 293 292 281 144 168 163
175 200 218 235 258 295 295 231 286 347 267 195 226 265 274 40 32 242 98 135 135 133 136 142 145 153 153 157 152 160 163 161 156 149 141 143 147 156 160 158 163 163 164 176 179 176 163 152 155 152 143 148 133 135 135 133 145 152 162 151 173 150 154 135 123 123 128 143 124 111 88 115 123 139 155 171 183 186 174 156 186 151 213 222 200 215 20 269 282 268 285 290 304 300 284 173 173
266 238 314 295 276 270 265 301 281 283 293 200 191 248 309 308 60 221 154 152 142 137 144 145 148 156 153 152 157 160 162 153 151 148 149 150 156 162 167 169 166 163 171 175 176 162 156 156 153 150 140 142 142 137 142 141 151 160 165 145 171 138 137 118 127 132 146 138 123 117 113 96 140 177 173 177 186 190 175 160 134 140 242 253 206 157 178 214 244 255 245 233 233 259 289 318 206
272 19 312 289 331 317 290 239 260 141 256 159 149 55 356 312 211 294 141 143 139 144 146 148 150 151 151 152 157 163 165 154 147 156 153 146 149 161 169 175 167 161 171 169 166 164 165 156 151 145 137 134 142 146 141 136 141 152 152 150 148 142 143 148 147 143 131 121 133 141 157 192 218 191 204 186 204 190 195 183 150 183 220 225 242 157 158 170 190 295 275 251 229 216 202 167 159
11 65 152 332 349 314 273 265 260 144 249 161 140 285 275 252 282 231 139 144 141 144 147 148 152 151 158 164 164 160 159 152 159 143 148 154 160 162 170 176 172 164 163 165 159 171 159 145 140 134 136 135 146 140 128 126 132 132 131 134 144 148 144 141 153 135 125 130 142 171 198 219 226 220 195 230 200 199 214 200 202 195 221 235 254 192 227 208 234 269 271 303 285 246 229 201 171
191 251 78 217 268 266 284 182 332 194 194 166 121 158 283 274 296 173 155 151 152 153 156 157 159 158 163 167 172 163 156 157 159 144 157 162 158 164 172 174 172 169 161 162 171 171 156 144 144 133 140 141 147 140 127 124 131 133 130 134 148 149 138 124 109 111 129 155 162 196 212 227 235 236 234 247 257 244 276 259 239 202 173 235 250 218 260 267 240 250 256 271 275 273 259 217 190
352 116 247 328 170 279 294 280 168 198 353 143 100 153 227 268 180 172 165 156 158 149 160 163 164 159 161 166 169 169 156 161 153 158 162 160 160 167 175 180 176 171 169 166 165 164 157 146 147 134 140 143 138 134 122 127 136 131 129 140 130 130 116 109 121 147 170 188 207 219 223 229 240 238 238 233 253 244 250 262 244 166 174 200 249 211 203 244 243 243 251 245 263 258 226 245 217
346 170 276 214 137 249 348 290 218 228 235 18 154 197 3 247 219 172 166 163 166 156 158 160 171 166 161 162 164 167 166 162 156 161 164 159 166 173 180 180 186 175 168 168 165 162 163 158 149 143 149 145 133 125 122 127 126 123 126 129 135 116 108 122 138 156 184 202 218 228 227 233 242 227 214 214 228 237 232 250 265 170 152 186 219 241 233 219 232 243 218 226 234 230 206 206 207
272 359 196 203 163 228 228 296 314 285 202 241 97 151 212 251 184 168 175 169 163 165 165 166 171 166 167 162 160 175 174 168 168 152 160 165 170 176 183 187 183 175 176 173 168 169 165 160 143 149 140 138 133 129 130 119 118 119 124 133 138 135 131 142 158 173 207 220 227 236 230 235 249 239 219 205 213 213 223 229 243 258 194 199 224 229 238 239 233 228 242 212 218 207 209 220 218
193 164 124 214 192 151 215 156 252 59 353 205 7 199 263 89 176 175 175 172 173 173 171 170 174 165 167 174 170 177 174 173 164 146 160 166 168 172 175 186 184 176 177 176 167 165 153 150 133 155 144 137 125 119 121 112 114 115 122 130 124 132 148 172 186 204 227 239 241 245 239 232 233 231 225 217 219 219 224 218 224 205 229 255 241 233 234 235 229 229 235 242 224 235 231 219 222
161 148 168 161 181 209 193 247 280 136 124 217 168 203 208 140 182 177 172 175 179 181 172 174 173 176 171 174 182 181 172 168 141 149 157 160 164 165 172 180 182 172 170 174 165 157 153 145 139 143 145 135 117 109 109 117 121 123 121 108 113 135 175 210 220 230 226 238 240 235 233 231 228 233 228 219 223 229 225 209 214 214 223 226 231 229 226 218 229 236 237 242 241 232 227 230 200
145 124 118 185 167 281 283 281 256 305 68 241 205 217 198 175 184 186 179 168 176 176 176 184 182 178 179 171 181 182 178 165 142 148 153 157 158 163 169 173 172 165 165 170 168 167 164 157 147 145 140 138 133 126 125 129 126 124 124 146 147 162 189 215 240 243 238 237 241 237 239 239 239 240 231 213 223 227 221 213 213 218 217 218 223 231 240 245 227 220 221 222 236 225 219 220 229
128 137 141 211 156 227 245 289 332 335 151 298 208 192 234 187 202 190 171 171 179 182 186 190 189 182 175 174 164 171 162 133 146 158 160 154 156 159 164 167 161 156 163 168 177 172 165 152 153 141 136 140 137 128 123 126 122 142 138 147 136 155 185 200 232 237 231 235 230 228 225 226 231 229 221 217 224 221 230 221 216 217 215 222 229 241 246 252 252 237 222 229 210 219 226 172 200
123 136 152 122 275 245 284 280 322 283 121 260 195 157 246 223 210 205 177 186 193 190 185 185 181 178 175 178 170 163 165 166 165 160 158 160 157 157 164 168 168 167 162 171 170 161 163 159 151 140 142 137 129 130 133 128 126 136 151 170 171 188 227 212 214 225 223 222 233 225 219 218 220 224 214 217 208 211 219 226 221 213 214 220 230 234 239 250 256 251 230 218 235 222 224 165 176
186 150 154 206 232 135 280 293 331 317 166 257 177 182 281 319 356 213 206 193 197 194 194 185 181 177 181 182 176 174 175 169 174 172 166 155 152 145 162 158 162 156 158 162 160 165 160 156 144 143 141 128 126 146 137 128 146 164 166 169 192 157 192 204 202 280 273 298 271 228 224 219 219 224 207 204 202 203 213 222 224 214 216 212 220 226 226 233 234 243 246 241 227 223 208 214 183
210 181 181 174 163 214 155 228 293 301 337 60 92 20 333 297 123 222 241 228 216 200 190 194 195 195 191 178 165 178 172 166 163 168 164 162 159 162 155 157 151 159 160 160 160 163 159 150 144 147 142 148 141 152 139 140 130 112 92 60 64 55 40 29 72 293 247 237 259 256 239 209 220 224 213 200 205 206 211 216 214 220 219 213 218 226 228 231 230 229 231 236 230 235 237 204 198
218 237 186 175 148 163 287 335 39 20 345 326 147 10 298 285 225 188 202 201 215 188 188 192 187 173 159 172 175 173 166 172 173 167 165 167 153 145 155 152 153 150 153 151 150 150 136 136 146 148 133 140 155 148 137 148 162 147 144 142 135 95 175 309 176 235 274 260 223 246 275 232 217 220 205 190 198 201 214 216 236 246 249 239 223 228 228 228 229 230 231 237 235 226 243 234 220
155 250 176 179 155 154 161 252 68 10 178 242 60 166 262 333 264 228 191 190 201 181 194 194 182 179 176 179 173 177 176 176 181 177 176 169 160 153 149 141 138 138 123 112 111 133 148 147 153 151 154 158 150 148 147 142 139 155 157 166 166 175 169 242 226 248 232 266 259 256 250 233 218 213 214 197 198 213 208 210 220 225 228 233 240 250 257 255 251 236 225 224 229 228 226 243 242
218 238 163 159 138 146 171 110 127 220 258 297 41 132 210 305 283 241 227 188 192 190 196 192 189 183 183 181 180 180 181 180 179 180 175 166 159 142 131 118 115 116 114 116 124 134 158 158 153 150 151 155 160 152 159 162 153 154 132 137 163 161 169 217 227 238 236 230 219 254 288 293 242 206 205 187 200 205 205 211 216 218 223 229 231 231 236 242 253 259 248 246 250 238 229 226 238
216 187 154 162 159 164 157 152 169 226 23 281 321 195 199 253 263 320 164 198 203 194 188 193 192 186 187 185 184 184 182 180 181 176 174 156 125 99 126 117 114 114 126 138 146 152 153 149 143 145 151 153 154 156 154 130 101 119 110 111 89 192 186 215 236 164 48 356 338 337 328 314 306 246 187 185 188 188 202 200 205 218 227 232 234 244 239 236 240 250 255 254 248 246 243 235 232
270 130 90 125 135 144 164 173 192 274 125 253 241 196 170 277 278 15 28 200 198 203 197 191 189 185 185 185 185 182 178 182 184 171 145 98 72 76 107 92 78 76 83 98 101 112 118 123 127 127 116 116 118 93 104 111 120 121 121 132 124 173 27 10 38 18 9 39 5 327 311 309 312 323 334 347 325 271 170 192 201 219 226 230 243 246 256 256 255 254 252 249 250 252 250 251 246
140 129 93 55 56 80 65 79 108 62 245 248 203 210 149 283 252 189 148 206 197 198 198 194 187 189 188 186 183 181 181 183 176 130 89 99 141 153 119 116 123 111 90 51 63 83 101 108 111 100 107 106 116 127 121 120 119 115 121 134 129 120 131 105 66 30 10 15 3 335 325 307 317 320 328 327 327 328 334 305 254 243 232 237 243 246 253 256 261 259 258 259 259 260 261 253 252
131 159 122 101 19 22 44 350 41 176 259 261 195 188 166 195 287 261 248 298 243 183 185 186 187 192 190 187 188 185 180 175 151 120 136 146 147 147 140 140 153 146 124 107 71 74 103 110 112 99 77 89 89 97 88 89 94 92 101 107 102 112 112 94 74 60 34 34 6 348 334 342 345 335 334 336 330 339 341 323 303 281 261 239 244 241 246 249 252 251 253 249 251 250 251 248 245
137 106 116 137 233 78 241 57 233 210 213 272 359 138 88 242 216 232 233 259 267 244 199 183 186 193 192 187 185 181 169 149 128 137 141 148 136 134 117 82 14 330 139 129 118 91 107 117 111 96 70 68 77 87 89 83 77 78 88 85 86 85 74 73 74 65 39 37 11 11 8 1 349 351 341 337 329 335 339 330 328 324 312 284 271 265 264 264 264 265 265 263 258 251 243 241 239
151 160 154 135 138 172 197 255 226 323 284 271 285 185 239 242 295 243 246 255 240 257 270 217 192 187 187 185 179 173 157 129 136 102 78 41 27 77 84 109 117 90 25 64 111 118 90 102 102 97 83 73 82 77 86 83 75 69 71 70 68 72 73 72 59 53 31 42 31 9 4 349 338 331 325 323 319 325 326 316 310 307 299 296 292 285 277 269 263 257 258 257 257 257 259 251 243
188 117 147 171 142 160 196 188 199 215 201 218 289 116 230 148 209 242 259 266 267 258 236 205 200 227 194 169 160 150 123 127 143 143 153 148 142 141 143 152 146 126 100 81 74 103 119 94 110 102 93 76 81 87 83 82 84 84 76 70 62 60 62 59 59 54 33 30 26 8 351 349 348 331 330 321 326 326 323 323 320 309 305 300 297 293 288 283 278 273 263 262 261 253 250 250 248
216 155 79 119 204 135 145 201 158 199 190 283 166 197 171 173 213 251 257 259 258 212 132 124 138 149 157 161 164 155 135 137 142 141 169 134 141 153 145 149 134 118 112 106 99 102 113 149 119 101 102 95 90 84 79 87 81 71 67 67 61 64 73 72 51 37 32 34 28 15 350 346 342 335 328 331 327 325 323 320 314 307 301 298 293 291 291 289 285 281 275 264 262 258 261 259 252
210 119 199 198 143 100 84 60 55 118 64 252 164 349 285 295 344 167 166 157 163 138 126 128 139 148 157 169 155 135 140 139 147 149 161 142 136 136 126 120 102 103 111 93 67 19 96 126 110 105 102 91 85 82 85 85 85 77 68 72 64 63 60 54 46 37 30 28 31 20 4 341 331 335 328 329 327 325 318 312 308 304 303 298 294 289 285 280 276 275 271 266 260 261 260 263 255
115 186 209 120 141 106 128 211 356 64 171 245 91 175 241 101 271 156 152 166 164 154 137 139 139 143 156 148 140 141 139 143 143 134 137 131 135 128 112 94 95 90 74 83 92 83 315 81 102 102 92 90 78 80 77 80 84 79 70 63 57 59 60 54 46 44 34 36 30 23 14 359 347 330 329 333 334 325 319 318 307 304 298 297 298 294 287 282 278 278 272 272 271 269 265 259 251
167 180 182 147 186 225 285 94 232 152 224 260 325 251 259 188 231 159 174 176 170 156 141 140 143 147 143 133 129 132 126 130 131 129 124 124 128 126 115 111 115 115 121 126 122 116 184 97 98 104 99 87 90 85 84 69 72 84 81 74 67 63 60 57 52 53 45 37 29 20 2 339 335 342 343 344 334 331 326 319 312 306 303 303 300 294 289 286 282 282 272 269 271 271 272 270 261
43 114 175 176 124 206 119 197 175 124 233 53 287 114 239 204 216 195 182 177 159 150 150 158 158 156 146 142 139 141 136 133 126 119 115 121 125 122 119 117 103 106 114 104 100 107 159 128 107 101 92 85 73 68 71 69 64 83 77 68 58 61 54 50 44 41 41 31 19 359 353 355 348 328 339 341 337 337 336 328 322 312 308 306 304 299 293 291 288 282 281 272 264 269 270 267 265
142 149 187 217 185 215 119 58 138 183 172 180 167 280 255 244 225 190 182 172 167 166 163 161 154 151 142 144 139 137 125 123 120 114 112 109 106 107 113 115 117 109 104 113 128 141 145 102 94 98 107 105 95 89 74 64 70 67 70 63 56 52 53 46 45 37 36 21 11 359 349 342 336 341 344 349 353 353 345 340 336 338 334 329 321 314 304 301 294 289 284 277 269 261 258 258 253
166 160 189 171 123 122 162 238 25 94 102 200 139 238 264 268 254 221 165 174 162 169 151 142 142 147 139 137 126 125 117 116 119 116 113 114 108 108 110 113 116 117 118 122 122 111 91 85 95 103 92 93 89 59 60 64 66 68 68 64 60 56 51 49 47 36 29 19 7 354 343 342 347 348 357 1 6 356 349 344 342 338 335 330 332 327 318 306 303 301 299 290 281 269 266 265 258